Tracking 25195 objects as of 20-Jan-2022
HD Live streaming from Space Station
objects crossing your sky now

ONEWEB-0292

Track ONEWEB-0292 now!
10-day predictions
ONEWEB-0292 is classified as:


NORAD ID: 49186
Int'l Code: 2021-083A
Perigee: 600.5 km
Apogee: 627.0 km
Inclination: 87.5 °
Period: 96.8 minutes
Semi major axis: 6984 km
RCS: Unknown
Launch date: September 14, 2021
Source: United Kingdom (UK)
Launch site: TYURATAM MISSILE AND SPACE COMPLEX (TTMTR)
aabbcc
Your satellite tracking list
Your tracking list is empty




NASA's NSSDC Master Catalog

Two Line Element Set (TLE):
1 49186U 21083A   22019.91667824 -.00045070  00000-0 -50337-2 0  9997
2 49186  87.5085 283.7455 0018960 203.9338  85.6441 14.87211762  3537
Source of the keplerian elements: AFSPC